Flag for U.S.A. Weather past 2 weeks in Temple, Texas, U.S.A.

Now
85 °F

Clear.


Feels Like: 84 °F
Forecast: 74 / 97 °F
Wind: 6 mph from Southeast

Location: Fort Hood AAF Airport

Current Time: Aug 3, 2015 at 12:15:26 AM

Latest Report: Aug 2, 2015 at 10:58 PM


Visibility: 10 mi

Pressure: 29.84 "Hg

Humidity: 39%

Dew point: 57 °F

Location of TempleLocation

Historic Weather in Temple — Graph

°F

Temple temperature yesterday

Maximum temperature yesterday: 97 °F (at 5:58 PM)
Minimum temperature yesterday: 78 °F (at 4:58 AM)
Average temperature yesterday: 87 °F

Past Weeks' High & Low Weather Summary

 TemperatureHumidityPressure
High100 °F (Jul 30, 4:58 PM)94% (Jul 24, 6:58 AM)30.07 "Hg (Jul 24, 6:58 AM)
Low72 °F (Jul 24, 6:58 AM)23% (Aug 1, 5:58 PM)29.77 "Hg (Jul 21, 6:58 PM)
Average86 °F56%29.92 "Hg
* Reported Jul 18 10:58 PM — Aug 2 10:58 PM, Temple, Weather by CustomWeather, © 2015

Note: Actual official high and low records may vary slightly from our data, if they occured in-between our weather recording intervals... More about our weather records

Advertising

Temple weather history for previous 24 hours

 ConditionsComfort  
Time TempWeatherWind HumidityBarometerVisibility
10:58 PM
Sun, Aug 2
85 °FClear.6 mph39%29.84 "Hg10 mi
9:58 PM87 °FClear.8 mph36%29.83 "Hg10 mi
8:58 PM90 °FSunny.8 mph32%29.81 "Hg10 mi
7:58 PM93 °FSunny.10 mph27%29.81 "Hg10 mi
6:58 PM96 °FSunny.12 mph27%29.81 "Hg10 mi
5:58 PM97 °FSunny.12 mph27%29.82 "Hg10 mi
4:58 PM96 °FSunny.6 mph25%29.83 "Hg10 mi
3:58 PM96 °FSunny.10 mph25%29.85 "Hg10 mi
2:58 PM96 °FSunny.6 mph28%29.87 "Hg10 mi
1:58 PM94 °FSunny.6 mph29%29.89 "Hg10 mi
12:58 PM92 °FSunny.5 mph31%29.91 "Hg10 mi
11:58 AM91 °FSunny.6 mph34%29.93 "Hg10 mi
10:58 AM90 °FSunny.3 mph36%29.93 "Hg10 mi
9:58 AM87 °FSunny.3 mph45%29.93 "Hg10 mi
8:58 AM84 °FSunny.No wind49%29.93 "Hg10 mi
7:58 AM82 °FMostly cloudy.No wind52%29.91 "Hg10 mi
6:58 AM78 °FOvercast.No wind59%29.90 "Hg10 mi
5:58 AM78 °FOvercast.2 mph59%29.89 "Hg10 mi
4:58 AM78 °FPassing clouds.No wind58%29.89 "Hg10 mi
3:58 AM80 °FPassing clouds.3 mph54%29.89 "Hg10 mi
2:58 AM79 °FPassing clouds.5 mph53%29.90 "Hg10 mi
1:58 AM79 °FPassing clouds.6 mph53%29.90 "Hg10 mi
12:58 AM82 °FClear.3 mph48%29.91 "Hg9 mi
Weather by CustomWeather, © 2015

See weather overviewHow to use our weather pages